| time (UTC) | temp C | wind direction | speed KPH | gust KPH | rain 1hr cm | rain 24hr cm | rain mn cm | humidity % | barometer mb |
| 20260506033100 | 7 | 349 | 9.7 | 22.5 | 0.00 | 0.00 | 0.00 | 85 | 1011.7 |
| 20260506031606 | 8 | 360 | 11.3 | 25.7 | 0.00 | 0.00 | 0.00 | 85 | 1011.8 |
| 20260506030056 | 8 | 5 | 8.0 | 20.9 | 0.00 | 0.00 | 0.00 | 84 | 1011.8 |
| 20260506024559 | 8 | 348 | 9.7 | 19.3 | 0.00 | 0.00 | 0.00 | 84 | 1011.8 |
| 20260506023057 | 8 | 360 | 9.7 | 22.5 | 0.00 | 0.00 | 0.00 | 83 | 1011.8 |
| 20260506021558 | 8 | 315 | 9.7 | 24.1 | 0.00 | 0.00 | 0.00 | 83 | 1011.9 |
| 20260506020057 | 8 | 18 | 8.0 | 22.5 | 0.00 | 0.00 | 0.00 | 83 | 1012.0 |
| 20260506014600 | 8 | 360 | 9.7 | 19.3 | 0.00 | 0.00 | 0.00 | 83 | 1012.0 |
| 20260506013057 | 8 | 11 | 11.3 | 24.1 | 0.00 | 0.00 | 0.00 | 83 | 1011.9 |
| 20260506011605 | 9 | 360 | 12.9 | 25.7 | 0.00 | 0.00 | 0.00 | 83 | 1012.1 |
| 20260506010110 | 9 | 33 | 9.7 | 22.5 | 0.00 | 0.00 | 0.00 | 84 | 1012.1 |
| 20260506004607 | 9 | 50 | 9.7 | 24.1 | 0.00 | 0.00 | 0.00 | 84 | 1012.3 |
| 20260506003059 | 9 | 34 | 11.3 | 27.4 | 0.00 | 0.00 | 0.00 | 83 | 1012.3 |
| 20260506001620 | 9 | 355 | 14.5 | 27.4 | 0.00 | 0.00 | 0.00 | 83 | 1012.3 |
| 20260506000110 | 9 | 355 | 11.3 | 29.0 | 0.00 | 0.00 | 0.00 | 83 | 1012.4 |
| 20260505234601 | 9 | 333 | 9.7 | 24.1 | 0.00 | 0.00 | 0.00 | 83 | 1012.5 |
| 20260505233059 | 9 | 78 | 9.7 | 20.9 | 0.00 | 0.00 | 0.00 | 82 | 1012.5 |
| 20260505231556 | 9 | 27 | 12.9 | 25.7 | 0.00 | 0.00 | 0.00 | 82 | 1012.6 |
| 20260505230117 | 9 | 70 | 11.3 | 24.1 | 0.00 | 0.00 | 0.00 | 81 | 1012.6 |
| 20260505224557 | 9 | 24 | 9.7 | 20.9 | 0.00 | 0.00 | 0.00 | 81 | 1012.4 |
| 20260505223100 | 9 | 43 | 9.7 | 20.9 | 0.00 | 0.00 | 0.00 | 81 | 1012.5 |
| 20260505221559 | 10 | 355 | 8.0 | 17.7 | 0.00 | 0.00 | 0.00 | 80 | 1012.7 |
| 20260505220056 | 10 | 5 | 9.7 | 20.9 | 0.00 | 0.00 | 0.00 | 80 | 1012.8 |
| 20260505214606 | 10 | 27 | 8.0 | 19.3 | 0.00 | 0.00 | 0.00 | 79 | 1012.8 |
| 20260505213100 | 10 | 12 | 6.4 | 17.7 | 0.00 | 0.00 | 0.00 | 79 | 1012.8 |
| 20260505211607 | 10 | 37 | 8.0 | 17.7 | 0.00 | 0.00 | 0.00 | 78 | 1012.8 |
| 20260505210106 | 10 | 40 | 6.4 | 14.5 | 0.00 | 0.00 | 0.00 | 77 | 1012.9 |
| 20260505204554 | 10 | 22 | 4.8 | 14.5 | 0.00 | 0.00 | 0.00 | 76 | 1012.9 |
| 20260505203054 | 10 | 57 | 6.4 | 19.3 | 0.00 | 0.00 | 0.00 | 75 | 1012.8 |
| 20260505201605 | 10 | 13 | 6.4 | 14.5 | 0.00 | 0.00 | 0.00 | 75 | 1012.6 |
| 20260505200058 | 10 | 355 | 3.2 | 12.9 | 0.00 | 0.00 | 0.00 | 74 | 1012.5 |
| 20260505194603 | 10 | 23 | 3.2 | 11.3 | 0.00 | 0.00 | 0.00 | 73 | 1012.1 |
| 20260505193104 | 11 | 45 | 6.4 | 14.5 | 0.00 | 0.00 | 0.00 | 72 | 1011.9 |
| 20260505191604 | 11 | 351 | 6.4 | 14.5 | 0.00 | 0.00 | 0.00 | 71 | 1012.0 |
| 20260505190119 | 11 | 355 | 4.8 | 14.5 | 0.00 | 0.00 | 0.00 | 71 | 1011.9 |
| 20260505184611 | 12 | 76 | 3.2 | 14.5 | 0.00 | 0.00 | 0.00 | 71 | 1011.8 |
| 20260505183102 | 12 | 17 | 3.2 | 8.0 | 0.00 | 0.00 | 0.00 | 71 | 1011.7 |
| 20260505181603 | 12 | 13 | 3.2 | 12.9 | 0.00 | 0.00 | 0.00 | 69 | 1011.7 |
| 20260505174556 | 13 | 19 | 4.8 | 12.9 | 0.00 | 0.00 | 0.00 | 67 | 1011.8 |
| 20260505173056 | 13 | 39 | 1.6 | 14.5 | 0.00 | 0.00 | 0.00 | 65 | 1011.7 |
| 20260505171558 | 14 | 32 | 6.4 | 16.1 | 0.00 | 0.00 | 0.00 | 62 | 1011.7 |
| 20260505170109 | 15 | 55 | 9.7 | 19.3 | 0.00 | 0.00 | 0.00 | 60 | 1011.7 |
| 20260505164555 | 15 | 30 | 9.7 | 20.9 | 0.00 | 0.00 | 0.00 | 59 | 1011.8 |
| 20260505163059 | 16 | 5 | 9.7 | 20.9 | 0.00 | 0.00 | 0.00 | 57 | 1011.9 |
| 20260505161555 | 16 | 19 | 12.9 | 30.6 | 0.00 | 0.00 | 0.00 | 57 | 1011.9 |
| 20260505153107 | 17 | 348 | 8.0 | 25.7 | 0.00 | 0.00 | 0.00 | 57 | 1011.8 |
| 20260505151557 | 17 | 360 | 9.7 | 22.5 | 0.00 | 0.00 | 0.00 | 57 | 1011.9 |
| 20260505150114 | 17 | 76 | 11.3 | 25.7 | 0.00 | 0.00 | 0.00 | 59 | 1012.0 |
| 20260505140117 | 16 | 360 | 11.3 | 20.9 | 0.00 | 0.00 | 0.00 | 61 | 1012.1 |
| 20260505130110 | 16 | 360 | 6.4 | 20.9 | 0.00 | 0.00 | 0.00 | 65 | 1012.4 |
| 20260505124617 | 16 | 38 | 8.0 | 19.3 | 0.00 | 0.00 | 0.00 | 65 | 1012.4 |
| 20260505123118 | 16 | 355 | 4.8 | 17.7 | 0.00 | 0.00 | 0.00 | 67 | 1012.4 |
| 20260505121556 | 16 | 35 | 9.7 | 20.9 | 0.00 | 0.00 | 0.00 | 65 | 1012.4 |
| 20260505120059 | 16 | 5 | 11.3 | 24.1 | 0.00 | 0.00 | 0.00 | 66 | 1012.5 |
| 20260505114602 | 15 | 32 | 9.7 | 24.1 | 0.00 | 0.00 | 0.00 | 70 | 1012.5 |
| 20260505113058 | 15 | 15 | 8.0 | 20.9 | 0.00 | 0.00 | 0.00 | 71 | 1012.5 |
| 20260505111603 | 14 | 43 | 4.8 | 20.9 | 0.00 | 0.00 | 0.00 | 71 | 1012.6 |
| 20260505101559 | 14 | 21 | 6.4 | 24.1 | 0.00 | 0.00 | 0.00 | 72 | 1012.5 |
| 20260505100105 | 13 | 360 | 12.9 | 25.7 | 0.00 | 0.00 | 0.00 | 70 | 1012.4 |
| 20260505094608 | 13 | 29 | 9.7 | 22.5 | 0.00 | 0.00 | 0.00 | 71 | 1012.7 |
| 20260505093101 | 14 | 34 | 12.9 | 20.9 | 0.00 | 0.00 | 0.00 | 71 | 1012.8 |
| 20260505091554 | 13 | 355 | 11.3 | 24.1 | 0.00 | 0.00 | 0.00 | 72 | 1012.9 |
| 20260505090109 | 13 | 21 | 9.7 | 24.1 | 0.00 | 0.00 | 0.00 | 72 | 1013.0 |
| 20260505084558 | 13 | 19 | 8.0 | 27.4 | 0.00 | 0.00 | 0.00 | 76 | 1012.8 |
| 20260505083110 | 13 | 324 | 9.7 | 27.4 | 0.00 | 0.00 | 0.00 | 75 | 1012.7 |
| 20260505081608 | 12 | 28 | 12.9 | 27.4 | 0.00 | 0.00 | 0.00 | 79 | 1012.8 |
| 20260505080059 | 12 | 12 | 12.9 | 24.1 | 0.00 | 0.00 | 0.00 | 82 | 1012.8 |
| 20260505074556 | 11 | 329 | 8.0 | 19.3 | 0.00 | 0.00 | 0.00 | 84 | 1012.7 |
| 20260505073101 | 10 | 345 | 8.0 | 30.6 | 0.00 | 0.00 | 0.00 | 85 | 1012.7 |
| 20260505071557 | 10 | 338 | 12.9 | 25.7 | 0.00 | 0.00 | 0.00 | 86 | 1012.7 |
| 20260505070059 | 10 | 23 | 11.3 | 24.1 | 0.00 | 0.00 | 0.00 | 87 | 1012.8 |
| 20260505064558 | 10 | 360 | 11.3 | 27.4 | 0.00 | 0.00 | 0.00 | 87 | 1012.8 |
| 20260505063100 | 9 | 351 | 12.9 | 25.7 | 0.00 | 0.00 | 0.00 | 88 | 1012.8 |
| 20260505061602 | 9 | 5 | 8.0 | 24.1 | 0.00 | 0.00 | 0.00 | 89 | 1012.9 |
| 20260505060058 | 9 | 32 | 8.0 | 19.3 | 0.00 | 0.00 | 0.00 | 89 | 1012.7 |
| 20260505054558 | 9 | 47 | 9.7 | 25.7 | 0.00 | 0.00 | 0.00 | 89 | 1012.9 |
| 20260505053055 | 8 | 360 | 12.9 | 25.7 | 0.00 | 0.00 | 0.00 | 89 | 1012.9 |
| 20260505051558 | 8 | 17 | 9.7 | 20.9 | 0.00 | 0.00 | 0.00 | 89 | 1012.9 |
| 20260505050128 | 8 | 53 | 9.7 | 22.5 | 0.00 | 0.00 | 0.00 | 89 | 1013.0 |
| 20260505041606 | 9 | 34 | 8.0 | 16.1 | 0.00 | 0.00 | 0.00 | 89 | 1013.4 |
| 20260505034554 | 9 | 15 | 3.2 | 14.5 | 0.00 | 0.00 | 0.00 | 90 | 1013.5 |